{"data":{"norad_id":56053,"epoch":"2026-05-25T00:48:40.688064Z","epoch_age_seconds":62245,"freshness":"FRESH","line1":"1 56053U 23043H   26145.03380426  .00000029  00000+0  41845-4 0  9991","line2":"2 56053  87.8989 263.8402 0001573 103.7748 256.3557 13.15549048153351","mean_motion":13.15549048,"eccentricity":0.0001573,"inclination_deg":87.8989,"raan_deg":263.8402,"arg_perigee_deg":103.7748,"mean_anomaly_deg":256.3557,"bstar":4.1845e-5,"rev_number":15335,"period_min":109.46000091667,"perigee_km":1200.5765353586,"apogee_km":1202.9611737405,"semimajor_km":7579.9058545495,"source":"CELESTRAK","updated_at":"2026-05-25T13:38:22.701244Z"}}